Orbital Elements at Epoch 2459200.5 (2020-Dec-17.0) TDB
Reference: JPL 32 (heliocentric ecliptic J2000)
Element | Value | Uncertainty (1-sigma) | Units |
e | .03560677048228182 | 3.9038e-08 | |
a | 3.074336869446322 | 1.7457e-08 | au |
q | 2.96486966215073 | 1.2278e-07 | au |
i | 10.38907001616757 | 4.3309e-06 | deg |
node | 43.63853120399205 | 2.079e-05 | deg |
peri | 166.0893173737436 | 5.797e-05 | deg |
M | 96.44918886516302 | 5.308e-05 | deg |
tp | 2458673.000945099148 (2019-Jul-08.50094510) | 0.0002911 | TDB |
period | 1968.908831672898 5.39 | 1.677e-05 4.591e-08 | d yr |
n | .1828423917902402 | 1.5574e-09 | deg/d |
Q | 3.183804076741914 | 1.8079e-08 | au |
|
| | Orbit Determination Parameters
Additional Information
|